Home > Weather > Khan Yunis > Past weeks

Flag for Palestinian Territories Weather for the Past 2 Weeks in Khan Yunis, Gaza Strip, Palestinian Territories

Now
64 °F

Partly sunny.


Feels Like: 64 °F
Forecast: 54 / 62 °F
Wind: 12 mph from Northwest

Location: El Arish

Current Time: Feb 10, 2016 at 3:08:17 PM

Latest Report: Feb 10, 2016 at 2:00 PM


Visibility: N/A

Pressure: 30.09 "Hg

Humidity: 56%

Dew point: 48 °F

Location of Khan YunisLocation

Historic Weather in Khan Yunis — Graph

°F

Khan Yunis Temperature Yesterday

Maximum temperature yesterday: 64 °F (at 12:00 PM)
Minimum temperature yesterday: 37 °F (at 5:00 AM)
Average temperature yesterday: 52 °F

High & Low Weather Summary for the Past Weeks

 TemperatureHumidityPressure
High79 °F (Feb 4, 3:00 PM)100% (Jan 26, 5:00 PM)30.45 "Hg (Jan 26, 5:00 PM)
Low36 °F (Jan 28, 6:00 AM)21% (Feb 4, 3:00 PM)29.95 "Hg (Feb 5, 6:00 AM)
Average53 °F84%30.19 "Hg
* Reported Jan 26 1:00 PM — Feb 10 1:00 PM, Khan Yunis, Weather by CustomWeather, © 2016

Note: Actual official high and low records may vary slightly from our data, if they occured in-between our weather recording intervals... More about our weather records

Advertising

Khan Yunis Weather History for the Previous 24 Hours

 ConditionsComfort  
Time TempWeatherWind HumidityBarometerVisibility
1:00 PM
Wed, Feb 10
63 °FScattered clouds.10 mph73%30.09 "HgN/A
12:00 PM61 °FScattered clouds.14 mph77%30.09 "HgN/A
11:00 AM59 °FScattered clouds.12 mph82%30.09 "HgN/A
10:00 AM59 °FScattered clouds.8 mph82%30.12 "HgN/A
9:00 AM54 °FPartly sunny.2 mph88%30.09 "HgN/A
8:00 AM52 °FOvercast.5 mph88%30.09 "HgN/A
7:00 AM52 °FPartly sunny.7 mph88%30.09 "HgN/A
6:00 AM52 °FClear.6 mph100%30.07 "Hg10 mi
5:00 AM52 °FClear.5 mph100%30.07 "Hg10 mi
4:00 AM48 °FClear.3 mph100%30.07 "Hg10 mi
3:00 AM50 °FClear.2 mph100%30.07 "Hg10 mi
2:00 AM48 °FClear.2 mph100%30.07 "Hg10 mi
1:00 AM46 °FClear.2 mph100%30.07 "Hg10 mi
12:00 AM46 °FClear.2 mph100%30.09 "Hg10 mi
11:00 PM
Tue, Feb 9
46 °FClear.1 mph82%30.09 "Hg10 mi
10:00 PM46 °FClear.No wind87%30.12 "Hg10 mi
9:00 PM48 °FClear.No wind76%30.12 "Hg10 mi
8:00 PM54 °FClear.2 mph72%30.12 "Hg10 mi
7:00 PM55 °FClear.3 mph63%30.12 "Hg10 mi
6:00 PM57 °FClear.5 mph63%30.12 "Hg10 mi
5:00 PM61 °FSunny.8 mph59%30.12 "Hg10 mi
4:00 PM63 °FSunny.10 mph59%30.12 "Hg10 mi
3:00 PM63 °FSunny.10 mph64%30.12 "Hg10 mi
Weather by CustomWeather, © 2016

See weather overviewHow to use our weather pages